EW9790 Weather Reports


time (UTC)temp
F
wind
direction
speed
knots
gust
knots
rain 1hr
in
rain 24hr
in
rain mn
in
humidity
%
barometer
mb
20260906113539 73 181 0.0 0.9 0.00 0.00 0.00 100 1011.7
20260906113308 73 181 0.0 0.9 0.00 0.00 0.00 100 1011.7
20260906112543 73 171 0.0 0.9 0.00 0.00 0.00 100 1011.7
20260906112539 73 172 0.0 0.9 0.00 0.00 0.00 100 1011.8
20260906111539 73 176 0.0 0.0 0.00 0.00 0.00 99 1011.7
20260906111038 73 176 0.0 0.9 0.00 0.00 0.00 99 1011.7
20260906110539 73 176 0.0 0.9 0.00 0.00 0.00 99 1011.6
20260906110037 73 176 0.0 0.9 0.00 0.00 0.00 99 1011.5
20260906105537 73 101 0.0 0.0 0.00 0.00 0.00 99 1011.3
20260906105043 73 101 0.0 0.0 0.00 0.00 0.00 99 1011.2
20260906105037 73 101 0.0 0.0 0.00 0.00 0.00 99 1011.2
20260906104037 73 101 0.0 0.0 0.00 0.00 0.00 99 1011.2
20260906103538 73 101 0.0 0.0 0.00 0.00 0.00 99 1011.2
20260906103037 73 101 0.0 0.0 0.00 0.00 0.00 99 1011.1
20260906102535 73 101 0.0 0.0 0.00 0.00 0.00 99 1010.9
20260906102035 73 101 0.0 0.0 0.00 0.00 0.00 99 1010.9
20260906101536 73 101 0.0 0.0 0.00 0.00 0.00 99 1010.8
20260906101035 73 101 0.0 0.0 0.00 0.00 0.00 99 1010.8
20260906100806 74 101 0.0 0.0 0.00 0.00 0.00 99 1010.8
20260906100305 74 101 0.0 0.9 0.00 0.00 0.00 99 1010.7
20260906095532 74 101 0.0 0.9 0.00 0.00 0.00 99 1010.8
20260906095032 74 101 0.0 0.0 0.00 0.00 0.00 99 1010.8
20260906094532 74 101 0.0 1.7 0.00 0.00 0.00 99 1010.8
20260906094032 74 101 0.0 1.7 0.00 0.00 0.00 99 1010.8
20260906093529 74 95 0.0 1.7 0.00 0.00 0.00 99 1011.0
20260906093303 74 229 0.0 0.0 0.00 0.00 0.00 99 1010.9
20260906092529 74 229 0.0 0.0 0.00 0.00 0.00 99 1010.8
20260906092029 74 229 0.0 0.9 0.00 0.00 0.00 99 1010.9
20260906091530 74 229 0.0 0.9 0.00 0.00 0.00 99 1010.9
20260906091259 74 229 0.0 0.9 0.00 0.00 0.00 99 1010.9
20260906090525 74 229 0.0 0.9 0.00 0.00 0.00 99 1011.0
20260906090257 74 229 0.0 0.9 0.00 0.00 0.00 99 1011.0
20260906085523 74 118 0.0 0.9 0.00 0.00 0.00 99 1011.0
20260906085024 74 202 0.0 0.9 0.00 0.00 0.00 99 1011.0
20260906084523 74 131 0.0 0.9 0.00 0.00 0.00 99 1011.0
20260906084023 74 131 0.0 0.0 0.00 0.00 0.00 99 1010.9
20260906083521 74 131 0.0 0.0 0.00 0.00 0.00 99 1010.8
20260906083021 74 131 0.0 0.0 0.00 0.00 0.00 99 1010.7
20260906082523 74 131 0.0 0.0 0.00 0.00 0.00 99 1010.6
20260906082018 74 131 0.0 0.0 0.00 0.00 0.00 99 1010.7
20260906081750 74 131 0.0 0.0 0.00 0.00 0.00 99 1010.6
20260906081018 74 131 0.0 0.0 0.00 0.00 0.00 99 1010.5
20260906080519 74 131 0.0 3.5 0.00 0.00 0.00 99 1010.5
20260906080017 74 131 0.0 3.5 0.00 0.00 0.00 99 1010.5
20260906075515 74 261 0.0 0.0 0.00 0.00 0.00 99 1010.3
20260906075015 74 261 0.0 0.0 0.00 0.00 0.00 99 1010.3
20260906074517 74 261 0.0 0.0 0.00 0.00 0.00 98 1010.3
20260906074015 74 261 0.0 0.0 0.00 0.00 0.00 98 1010.3
20260906073516 74 261 0.0 0.0 0.00 0.00 0.00 98 1010.4
20260906073015 75 261 0.0 0.0 0.00 0.00 0.00 98 1010.4
20260906072513 75 261 0.0 0.0 0.00 0.00 0.00 98 1010.4
20260906072013 75 261 0.0 0.0 0.00 0.00 0.00 98 1010.4
20260906071515 75 261 0.0 0.0 0.00 0.00 0.00 98 1010.4
20260906071014 75 261 0.0 0.0 0.00 0.00 0.00 98 1010.4
20260906070744 75 261 0.0 0.0 0.00 0.00 0.00 98 1010.4
20260906070014 75 261 0.0 0.0 0.00 0.00 0.00 98 1010.3
20260906065514 75 261 0.0 0.0 0.00 0.00 0.00 98 1010.4
20260906065013 75 261 0.0 0.0 0.00 0.00 0.00 98 1010.5
20260906064514 75 261 0.0 0.0 0.00 0.00 0.00 98 1010.6
20260906064245 75 261 0.0 0.0 0.00 0.00 0.00 98 1010.7
20260906063512 75 261 0.0 0.0 0.00 0.00 0.00 98 1010.7
20260906063243 75 261 0.0 0.0 0.00 0.00 0.00 98 1010.7
20260906062512 75 261 0.0 0.0 0.00 0.00 0.00 98 1010.7
20260906062010 75 261 0.0 0.0 0.00 0.00 0.00 98 1010.7
20260906061512 76 261 0.0 0.0 0.00 0.00 0.00 98 1010.8
20260906061012 76 261 0.0 0.0 0.00 0.00 0.00 98 1010.8
20260906060512 76 261 0.0 0.0 0.00 0.00 0.00 98 1010.8
20260906060011 76 261 0.0 0.0 0.00 0.00 0.00 98 1010.9
20260906055511 76 261 0.0 0.0 0.00 0.00 0.00 98 1010.9
20260906055243 76 261 0.0 0.0 0.00 0.00 0.00 98 1011.0
20260906054509 76 261 0.0 0.0 0.00 0.00 0.00 98 1011.0
20260906054009 76 261 0.0 0.0 0.00 0.00 0.00 98 1011.1
20260906053510 76 261 0.0 0.0 0.00 0.00 0.00 98 1011.1
20260906053010 76 261 0.0 0.0 0.00 0.00 0.00 98 1011.2
20260906052509 75 261 0.0 0.0 0.00 0.00 0.00 98 1011.1
20260906052011 75 261 0.0 0.0 0.00 0.00 0.00 98 1011.2
20260906051510 75 261 0.0 0.0 0.00 0.00 0.00 98 1011.1
20260906051007 75 261 0.0 0.0 0.00 0.00 0.00 98 1011.1
20260906050508 75 261 0.0 0.0 0.00 0.00 0.00 98 1011.1
20260906050007 75 261 0.0 0.0 0.00 0.00 0.00 98 1011.1
20260906045507 75 261 0.0 0.0 0.00 0.00 0.00 98 1011.2
20260906045005 75 261 0.0 0.0 0.00 0.00 0.00 98 1011.2
20260906044505 75 261 0.0 0.0 0.00 0.00 0.00 98 1011.2
20260906044005 75 261 0.0 0.0 0.00 0.00 0.00 97 1011.2
20260906043507 75 261 0.0 0.0 0.00 0.00 0.00 97 1011.3
20260906043237 75 261 0.0 0.0 0.00 0.00 0.00 97 1011.3
20260906042503 75 261 0.0 0.0 0.00 0.00 0.00 97 1011.3
20260906042235 75 261 0.0 0.0 0.00 0.00 0.00 97 1011.3
20260906041503 75 261 0.0 0.0 0.00 0.00 0.00 97 1011.2
20260906041003 76 261 0.0 0.0 0.00 0.00 0.00 97 1011.1
20260906040503 76 261 0.0 0.0 0.00 0.00 0.00 97 1011.2
20260906040234 76 261 0.0 0.0 0.00 0.00 0.00 97 1011.2
20260906035732 76 261 0.0 0.0 0.00 0.00 0.00 97 1011.1
20260906035001 76 261 0.0 0.0 0.00 0.00 0.00 96 1011.1
20260906034501 76 261 0.0 0.9 0.00 0.00 0.00 97 1011.1
20260906034236 76 261 0.0 0.9 0.00 0.00 0.00 96 1011.1
20260906033502 76 261 0.0 0.0 0.00 0.00 0.00 96 1011.0
20260906033000 76 261 0.0 0.0 0.00 0.00 0.00 96 1011.0
20260906032459 76 261 0.0 0.0 0.00 0.00 0.00 96 1010.9
20260906031958 76 261 0.0 0.0 0.00 0.00 0.00 96 1010.8
20260906031457 76 261 0.0 0.0 0.00 0.00 0.00 96 1010.7
20260906030958 76 261 0.0 0.0 0.00 0.00 0.00 96 1010.7
20260906030459 76 261 0.0 0.0 0.00 0.00 0.00 96 1010.6
20260906025958 76 261 0.0 0.0 0.00 0.00 0.00 96 1010.5
20260906025457 76 261 0.0 0.0 0.00 0.00 0.00 96 1010.5
20260906024957 76 261 0.0 0.0 0.00 0.00 0.00 96 1010.5
20260906024458 77 261 0.0 0.0 0.00 0.00 0.00 96 1010.5
20260906023958 77 261 0.0 0.0 0.00 0.00 0.00 95 1010.5
20260906023458 77 261 0.0 0.0 0.00 0.00 0.00 95 1010.4
20260906022958 77 261 0.0 0.0 0.00 0.00 0.00 95 1010.5
20260906022455 77 261 0.0 0.0 0.00 0.00 0.00 95 1010.4
20260906021955 77 261 0.0 0.0 0.00 0.00 0.00 95 1010.4
20260906021455 77 261 0.0 0.0 0.00 0.00 0.00 95 1010.5
20260906020955 77 261 0.0 0.0 0.00 0.00 0.00 95 1010.3
20260906020456 77 261 0.0 0.0 0.00 0.00 0.00 94 1010.3
20260906015956 77 261 0.0 0.0 0.00 0.00 0.00 95 1010.2
20260906015726 78 261 0.0 0.0 0.00 0.00 0.00 95 1010.3
20260906014956 78 261 0.0 0.0 0.00 0.00 0.00 94 1010.3
20260906014456 78 261 0.0 0.0 0.00 0.00 0.00 94 1010.2
20260906013955 78 261 0.0 0.0 0.00 0.00 0.00 94 1010.2
20260906013453 78 261 0.0 0.0 0.00 0.00 0.00 94 1010.0
20260906012952 78 261 0.0 0.0 0.00 0.00 0.00 93 1010.0
20260906012454 78 261 0.0 0.0 0.00 0.00 0.00 93 1010.1
20260906011954 79 261 0.0 0.0 0.00 0.00 0.00 93 1010.1
20260906011724 79 261 0.0 0.0 0.00 0.00 0.00 92 1010.1
20260906010954 79 261 0.0 0.0 0.00 0.00 0.00 91 1009.9
20260906010453 79 261 0.0 0.0 0.00 0.00 0.00 92 1009.9
20260906005953 79 261 0.0 0.0 0.00 0.00 0.00 92 1009.8
20260906005453 80 261 0.0 0.0 0.00 0.00 0.00 92 1009.8
20260906004953 80 261 0.0 0.0 0.00 0.00 0.00 91 1009.8
20260906004452 80 261 0.0 0.0 0.00 0.00 0.00 90 1009.7
20260906003951 80 261 0.0 0.0 0.00 0.00 0.00 90 1009.7
20260906003452 81 261 0.0 0.0 0.00 0.00 0.00 90 1009.7
20260906002951 81 261 0.0 0.0 0.00 0.00 0.00 90 1009.7
20260906002450 82 261 0.0 0.0 0.00 0.00 0.00 89 1009.7
20260906002219 82 261 0.0 0.0 0.00 0.00 0.00 89 1009.8
20260906001449 82 261 0.0 0.0 0.00 0.00 0.00 88 1009.8
20260906000950 83 261 0.0 0.0 0.00 0.00 0.00 88 1009.8
20260906000449 83 261 0.0 0.0 0.00 0.00 0.00 88 1009.9
20260905235950 83 261 0.0 0.0 0.00 0.00 0.00 87 1010.0
20260905235450 84 261 0.0 0.0 0.00 0.00 0.00 87 1010.0
20260905234950 84 261 0.0 0.0 0.00 0.00 0.00 86 1010.0
20260905234448 85 261 0.0 0.0 0.00 0.00 0.00 86 1010.0
20260905233948 85 261 0.0 0.0 0.00 0.00 0.00 85 1009.9
20260905233448 86 261 0.0 0.0 0.00 0.00 0.00 82 1010.0
20260905232948 87 261 0.0 0.0 0.00 0.00 0.00 81 1010.0
20260905232449 87 261 0.0 0.0 0.00 0.00 0.00 78 1010.0
20260905231949 88 261 0.0 0.0 0.00 0.00 0.00 77 1009.9
20260905231449 89 261 0.0 0.0 0.00 0.00 0.00 74 1009.9
20260905231218 91 261 0.0 0.9 0.00 0.00 0.00 73 1009.8
20260905230447 93 261 0.0 0.9 0.00 0.00 0.00 71 1009.8
20260905225949 94 261 0.0 0.9 0.00 0.00 0.00 69 1009.8
20260905225446 95 261 0.0 0.9 0.00 0.00 0.00 69 1009.9
20260905224947 96 261 0.0 0.9 0.00 0.00 0.00 69 1009.9
20260905224447 96 261 0.0 0.9 0.00 0.00 0.00 69 1009.9
20260905223947 96 261 0.0 0.9 0.00 0.00 0.00 67 1010.0
20260905223718 97 261 0.0 0.9 0.00 0.00 0.00 65 1009.9
20260905222947 99 261 0.0 0.9 0.00 0.00 0.00 63 1010.0
20260905222448 101 260 0.0 0.9 0.00 0.00 0.00 59 1010.0
20260905221944 101 260 0.0 0.9 0.00 0.00 0.00 60 1010.0
20260905221446 101 260 0.0 0.9 0.00 0.00 0.00 60 1010.0
20260905220946 101 260 0.0 0.0 0.00 0.00 0.00 62 1010.0
20260905220443 101 260 0.0 0.9 0.00 0.00 0.00 59 1010.1
20260905220215 101 260 0.0 0.9 0.00 0.00 0.00 56 1010.1
20260905215444 101 260 0.0 0.9 0.00 0.00 0.00 57 1010.0
20260905214940 101 260 0.0 0.9 0.00 0.00 0.00 57 1010.0
20260905214442 101 260 0.0 2.6 0.00 0.00 0.00 59 1010.1
20260905213940 101 260 0.0 2.6 0.00 0.00 0.00 47 1010.1
20260905213438 101 328 0.0 0.9 0.00 0.00 0.00 56 1010.2
20260905212936 101 328 0.0 1.7 0.00 0.00 0.00 48 1010.3
20260905212442 99 21 0.0 0.9 0.00 0.00 0.00 50 1010.3
20260905212437 100 328 0.0 1.7 0.00 0.00 0.00 49 1010.3
20260905211437 98 22 0.0 1.7 0.00 0.00 0.00 58 1010.3
20260905210937 98 17 0.9 1.7 0.00 0.00 0.00 51 1010.4
20260905210437 98 39 0.9 2.6 0.00 0.00 0.00 51 1010.3
20260905205936 98 86 0.9 2.6 0.00 0.00 0.00 50 1010.3
20260905205436 98 75 0.9 3.5 0.00 0.00 0.00 51 1010.5
20260905204936 98 87 1.7 4.3 0.00 0.00 0.00 54 1010.5
20260905204437 98 73 1.7 4.3 0.00 0.00 0.00 50 1010.5
20260905203936 99 143 0.9 4.3 0.00 0.00 0.00 50 1010.5
20260905203436 99 119 0.9 6.1 0.00 0.00 0.00 51 1010.6
20260905202936 98 239 1.7 6.1 0.00 0.00 0.00 56 1010.6
20260905202437 99 87 0.9 4.3 0.00 0.00 0.00 51 1010.7
20260905202208 99 110 0.9 4.3 0.00 0.00 0.00 55 1010.8
20260905201436 99 58 0.9 4.3 0.00 0.00 0.00 51 1010.8
20260905201209 99 253 0.0 1.7 0.00 0.00 0.00 52 1011.0
20260905200437 98 253 0.0 1.7 0.00 0.00 0.00 52 1011.1
20260905195938 98 56 0.9 1.7 0.00 0.00 0.00 51 1011.2
20260905195438 98 30 0.9 3.5 0.00 0.00 0.00 52 1011.2
20260905194938 98 1 0.0 3.5 0.00 0.00 0.00 52 1011.3
20260905194437 97 200 0.9 3.5 0.00 0.00 0.00 57 1011.4
20260905193934 96 217 0.9 5.2 0.00 0.00 0.00 58 1011.5
20260905193430 96 70 1.7 6.1 0.00 0.00 0.00 54 1011.5
20260905192931 97 43 0.9 6.1 0.00 0.00 0.00 58 1011.6
20260905192428 98 19 0.9 2.6 0.00 0.00 0.00 54 1011.6
20260905191928 99 347 0.9 4.3 0.00 0.00 0.00 53 1011.8
20260905191700 100 14 0.9 4.3 0.00 0.00 0.00 48 1011.8
20260905191157 99 210 0.9 4.3 0.00 0.00 0.00 50 1011.9
20260905190427 99 176 0.9 3.5 0.00 0.00 0.00 49 1011.9
20260905185927 99 246 0.9 3.5 0.00 0.00 0.00 48 1012.0
20260905185426 100 284 0.9 3.5 0.00 0.00 0.00 52 1012.1
20260905184926 99 291 0.9 3.5 0.00 0.00 0.00 50 1012.1
20260905184426 99 285 0.9 1.7 0.00 0.00 0.00 51 1012.2
20260905184157 99 236 0.9 3.5 0.00 0.00 0.00 50 1012.2
20260905183423 99 315 0.9 3.5 0.00 0.00 0.00 49 1012.3
20260905182923 99 241 0.9 2.6 0.00 0.00 0.00 49 1012.3
20260905182421 100 259 0.0 1.7 0.00 0.00 0.00 52 1012.4
20260905181919 99 285 0.9 2.6 0.00 0.00 0.00 52 1012.5
20260905181418 99 260 0.9 2.6 0.00 0.00 0.00 54 1012.4
20260905180919 99 231 0.9 2.6 0.00 0.00 0.00 54 1012.5
20260905180420 98 319 0.9 2.6 0.00 0.00 0.00 50 1012.5
20260905175919 98 271 0.9 3.5 0.00 0.00 0.00 53 1012.6
20260905175418 98 263 0.9 3.5 0.00 0.00 0.00 53 1012.6
20260905174918 98 257 0.9 2.6 0.00 0.00 0.00 54 1012.6
20260905174416 98 20 0.9 2.6 0.00 0.00 0.00 50 1012.8
20260905174148 98 272 0.9 2.6 0.00 0.00 0.00 51 1012.8
20260905173417 98 37 0.9 2.6 0.00 0.00 0.00 53 1012.9
20260905172914 98 324 0.9 1.7 0.00 0.00 0.00 57 1012.9
20260905172414 98 272 0.9 2.6 0.00 0.00 0.00 57 1012.9
20260905171915 97 70 0.9 2.6 0.00 0.00 0.00 56 1013.0
20260905171647 97 112 0.9 1.7 0.00 0.00 0.00 53 1013.0
20260905170914 97 36 0.9 1.7 0.00 0.00 0.00 52 1013.1
20260905170415 97 53 0.9 1.7 0.00 0.00 0.00 56 1013.2
20260905165914 97 268 0.9 2.6 0.00 0.00 0.00 56 1013.2
20260905165412 97 271 0.9 2.6 0.00 0.00 0.00 55 1013.3
20260905164912 97 309 0.9 1.7 0.00 0.00 0.00 56 1013.3
20260905164645 97 285 0.9 1.7 0.00 0.00 0.00 58 1013.4
20260905163913 96 268 0.9 2.6 0.00 0.00 0.00 55 1013.4
20260905163412 97 250 0.0 2.6 0.00 0.00 0.00 58 1013.5
20260905163143 96 193 0.0 1.7 0.00 0.00 0.00 55 1013.5
20260905162412 96 304 0.9 1.7 0.00 0.00 0.00 63 1013.6
20260905161913 96 307 0.9 1.7 0.00 0.00 0.00 61 1013.6
20260905161411 95 1 0.0 1.7 0.00 0.00 0.00 63 1013.6
20260905160910 95 2 0.9 2.6 0.00 0.00 0.00 62 1013.6
20260905160410 96 290 0.9 2.6 0.00 0.00 0.00 62 1013.7
20260905155910 95 260 0.0 1.7 0.00 0.00 0.00 61 1013.7
20260905155410 95 179 0.0 0.9 0.00 0.00 0.00 61 1013.7
20260905154911 95 148 0.0 1.7 0.00 0.00 0.00 62 1013.8
20260905154408 95 240 0.0 1.7 0.00 0.00 0.00 63 1013.8
20260905153908 95 192 0.0 2.6 0.00 0.00 0.00 63 1013.8
20260905153408 95 227 0.0 2.6 0.00 0.00 0.00 62 1013.8
20260905152909 95 255 0.0 1.7 0.00 0.00 0.00 65 1013.8
20260905152409 94 128 0.0 1.7 0.00 0.00 0.00 64 1013.8
20260905151908 94 278 0.0 1.7 0.00 0.00 0.00 64 1013.8
20260905151409 93 283 0.0 1.7 0.00 0.00 0.00 67 1013.8
20260905150908 93 280 0.0 1.7 0.00 0.00 0.00 66 1013.9
20260905150639 93 302 0.0 0.9 0.00 0.00 0.00 68 1013.9
20260905145909 92 302 0.0 0.9 0.00 0.00 0.00 72 1013.9
20260905145406 92 301 0.0 0.9 0.00 0.00 0.00 70 1013.9
20260905144907 92 300 0.0 0.9 0.00 0.00 0.00 70 1013.9
20260905144407 92 286 0.0 0.9 0.00 0.00 0.00 71 1013.8
20260905144138 91 286 0.0 0.9 0.00 0.00 0.00 71 1013.8
20260905143407 90 285 0.0 0.9 0.00 0.00 0.00 73 1013.8
20260905142906 90 286 0.0 0.9 0.00 0.00 0.00 73 1013.8
20260905142639 90 286 0.0 0.9 0.00 0.00 0.00 72 1013.8
20260905141907 90 105 0.0 0.9 0.00 0.00 0.00 73 1013.7
20260905141413 89 121 0.0 1.7 0.00 0.00 0.00 78 1013.7
20260905141408 90 121 0.0 0.0 0.00 0.00 0.00 77 1013.8
20260905140635 88 121 0.0 1.7 0.00 0.00 0.00 78 1013.8
20260905135904 87 124 0.0 1.7 0.00 0.00 0.00 82 1013.7
20260905135634 86 124 0.0 1.7 0.00 0.00 0.00 82 1013.8
20260905135135 85 288 0.0 0.0 0.00 0.00 0.00 88 1013.7
20260905134634 84 288 0.0 0.0 0.00 0.00 0.00 92 1013.8
20260905133904 83 288 0.0 0.0 0.00 0.00 0.00 95 1013.7
20260905133635 83 288 0.0 0.0 0.00 0.00 0.00 97 1013.6
20260905133135 82 288 0.0 0.0 0.00 0.00 0.00 99 1013.7
20260905132405 81 288 0.0 0.0 0.00 0.00 0.00 99 1013.7
20260905131902 80 288 0.0 0.0 0.00 0.00 0.00 99 1013.7
20260905131634 79 288 0.0 0.0 0.00 0.00 0.00 100 1013.7
20260905130902 78 288 0.0 0.0 0.00 0.00 0.00 100 1013.6
20260905130403 79 288 0.0 0.0 0.00 0.00 0.00 100 1013.6
20260905125901 79 288 0.0 0.0 0.00 0.00 0.00 100 1013.5
20260905125408 76 288 0.0 0.0 0.00 0.00 0.00 100 1013.5
20260905125401 78 288 0.0 0.0 0.00 0.00 0.00 100 1013.5
20260905124403 75 288 0.0 0.0 0.00 0.00 0.00 100 1013.5
20260905123902 74 288 0.0 0.0 0.00 0.00 0.00 100 1013.4
20260905123402 74 288 0.0 0.0 0.00 0.00 0.00 100 1013.4
20260905123133 73 288 0.0 0.0 0.00 0.00 0.00 100 1013.3
20260905122633 72 288 0.0 0.0 0.00 0.00 0.00 100 1013.2
20260905121902 72 288 0.0 0.0 0.00 0.00 0.00 100 1013.2
20260905121403 72 288 0.0 0.0 0.00 0.00 0.00 100 1013.2
20260905121135 72 288 0.0 0.0 0.00 0.00 0.00 100 1013.2
20260905120401 72 288 0.0 0.0 0.00 0.00 0.00 100 1013.2
20260905120136 72 288 0.0 0.0 0.00 0.00 0.00 100 1013.2
20260905115401 72 288 0.0 0.0 0.00 0.00 0.00 100 1013.2
20260905114902 72 288 0.0 0.0 0.00 0.00 0.00 100 1013.2
20260905114402 71 288 0.0 0.0 0.00 0.00 0.00 100 1013.1
20260905114136 71 288 0.0 0.0 0.00 0.00 0.00 100 1013.1